Berlin, NH

7:49 AM EDT on June 25, 2017 (GMT -0400)
Berlin Municipal

Weather History for KBML - January, 2014

Change the Weather History Date:

Wednesday, January 15, 2014

  Actual Average Record
Temperature  
Mean Temperature 36 °F -  
Max Temperature 44 °F 20 °F 44 °F (2014)
Min Temperature 27 °F 0 °F -31 °F (2004)
Degree Days  
Heating Degree Days 30    
Moisture  
Dew Point 29 °F    
Average Humidity 81    
Maximum Humidity 96    
Minimum Humidity 53    
Precipitation  
Precipitation 0.01 in - - ()
Sea Level Pressure  
Sea Level Pressure 29.87 in    
Wind  
Wind Speed 3 mph (West)    
Max Wind Speed 7 mph    
Max Gust Speed -    
Visibility 9 miles    
Events      
Averages and records for this station are not official NWS values.
T = Trace of Precipitation, MM = Missing Value Source: NWS Daily Summary

Daily Weather History Graph

Daily Weather History Graph

Search for Another Location

Airport or City:

Trip Planner

Search our weather history database for the weather conditions in past years. The results will help you decide how hot, cold, wet, or windy it might be!

Date:

Astronomy

Jan. 15, 2014 Rise Set
Actual Time 7:18 AM EST 4:30 PM EST
Civil Twilight 6:45 AM EST 5:03 PM EST
Nautical Twilight 6:09 AM EST 5:39 PM EST
Astronomical Twilight 5:34 AM EST 6:14 PM EST
Moon 4:28 PM EST (1/15) 6:30 AM EST (1/15)
Length of Visible Light 10h 17m
Length of Day
9h 12m
Full, 100% of the Moon is Illuminated
Jan 15
Full
Jan 15
Full
Jan 24
Last Quarter
Jan 30
New
Feb 6
First Quarter

Hourly Weather History & Observations

Time (EST) Temp. Windchill Dew Point Humidity Pressure Visibility Wind Dir Wind Speed Gust Speed Precip Events Conditions
12:52 AM 35.1 °F 32.2 °F 34.0 °F 96% 29.75 in 10.0 mi WNW 3.5 mph - 0.01 in   Overcast
1:52 AM 35.1 °F - 33.1 °F 92% 29.78 in 10.0 mi Calm Calm - N/A   Overcast
2:30 AM 35.1 °F 32.2 °F 33.1 °F 92% 29.76 in 9.0 mi WSW 3.5 mph - N/A   Overcast
2:52 AM 36.0 °F 30.3 °F 32.0 °F 86% 29.81 in 10.0 mi West 6.9 mph - N/A   Overcast
3:04 AM 36.0 °F 31.1 °F 30.9 °F 82% 29.77 in 10.0 mi WNW 5.8 mph - N/A   Overcast
3:36 AM 35.1 °F - 30.0 °F 82% 29.79 in 10.0 mi Calm Calm - N/A   Overcast
3:52 AM 35.1 °F 32.2 °F 30.0 °F 82% 29.84 in 10.0 mi Variable 3.5 mph - N/A   Overcast
4:04 AM 35.1 °F 32.2 °F 30.0 °F 82% 29.81 in 10.0 mi NNW 3.5 mph - N/A   Overcast
4:29 AM 35.1 °F 31.0 °F 28.9 °F 78% 29.81 in 10.0 mi North 4.6 mph - N/A   Overcast
4:43 AM 35.1 °F 31.0 °F 28.0 °F 76% 29.81 in 10.0 mi NW 4.6 mph - N/A   Overcast
4:52 AM 34.0 °F 31.0 °F 28.9 °F 82% 29.85 in 10.0 mi WNW 3.5 mph - N/A   Overcast
5:52 AM 34.0 °F - 27.0 °F 75% 29.87 in 10.0 mi Calm Calm - N/A   Mostly Cloudy
6:05 AM 33.1 °F 30.0 °F 27.0 °F 78% 29.83 in 10.0 mi NNW 3.5 mph - N/A   Scattered Clouds
6:52 AM 30.0 °F 26.5 °F 26.1 °F 85% 29.91 in 10.0 mi SE 3.5 mph - N/A   Scattered Clouds
7:06 AM 30.0 °F - 28.0 °F 92% 29.87 in 10.0 mi Calm Calm - N/A   Mostly Cloudy
7:15 AM 30.0 °F - 28.0 °F 92% 29.88 in 9.0 mi Calm Calm - N/A   Scattered Clouds
7:52 AM 28.0 °F - 26.1 °F 92% 29.94 in 6.0 mi Calm Calm - N/A   Clear
8:52 AM 32.0 °F - 28.9 °F 88% 29.97 in 10.0 mi Calm Calm - N/A   Clear
9:52 AM 35.1 °F 32.2 °F 30.0 °F 82% 29.95 in 10.0 mi SSW 3.5 mph - N/A   Clear
10:52 AM 39.0 °F - 28.9 °F 67% 29.94 in 10.0 mi Calm Calm - N/A   Clear
11:52 AM 42.1 °F - 28.9 °F 60% 29.92 in 10.0 mi Calm Calm - N/A   Clear
12:52 PM 42.1 °F 39.2 °F 28.9 °F 60% 29.90 in 10.0 mi Variable 4.6 mph - N/A   Clear
1:52 PM 43.0 °F 39.5 °F 28.9 °F 58% 29.89 in 10.0 mi South 5.8 mph - N/A   Clear
2:52 PM 44.1 °F 40.1 °F 28.0 °F 53% 29.89 in 10.0 mi SSE 6.9 mph - N/A   Clear
3:52 PM 42.1 °F 37.7 °F 28.9 °F 60% 29.90 in 10.0 mi SE 6.9 mph - N/A   Clear
4:52 PM 39.0 °F 36.8 °F 28.9 °F 67% 29.90 in 10.0 mi SSW 3.5 mph - N/A   Partly Cloudy
5:52 PM 30.0 °F - 28.0 °F 92% 29.91 in 10.0 mi Calm Calm - N/A   Clear
6:52 PM 28.9 °F - 27.0 °F 92% 29.92 in 7.0 mi Calm Calm - N/A   Partly Cloudy
7:52 PM 28.9 °F 25.2 °F 27.0 °F 92% 29.92 in 6.0 mi SSE 3.5 mph - N/A   Overcast
8:52 PM 28.9 °F 25.2 °F 27.0 °F 92% 29.91 in 6.0 mi NNW 3.5 mph - N/A   Scattered Clouds
9:52 PM 28.0 °F 24.2 °F 26.1 °F 92% 29.89 in 6.0 mi WSW 3.5 mph - N/A   Overcast
10:52 PM 27.0 °F - 25.0 °F 92% 29.90 in 5.0 mi Calm Calm - N/A   Mostly Cloudy
11:52 PM 28.9 °F - 27.0 °F 92% 29.88 in 6.0 mi Calm Calm - N/A   Overcast